Latest Automated Weather Stations
Site ID Site Name Temperature Humidity Wind Speed Wind Direction Precipitation Pressure Solar Radiation Last Updated
0 25°C 73% 10.8 km/hr SW 0 mm/hr 993.9 0 March 23, 2019, 8:10 pm
98 Science Garden, Quezon City 28°C 54% 7.2 km/hr SE 0 mm/hr 1006.9 0 March 23, 2019, 8:10 pm
5001 San Jose Synoptic Station 29°C 61% 7.2 km/hr ENE 0 mm/hr 1011.4 - March 23, 2019, 8:00 pm
5002 Torrijos Marinduque State University 21°C 94% 0 km/hr N 0 mm/hr - 0 March 23, 2019, 8:15 pm
5004 Daanbantayan, Cebu 29°C 54% 7.2 km/hr ENE 0 mm/hr 1012 0 March 23, 2019, 8:00 pm
5006 Borongan Synop,Eastern Samar 27°C 73% 3.6 km/hr ENE 0 mm/hr 1013.8 0 March 23, 2019, 8:10 pm
5009 Kidapawan, North Cotabato 23°C 84% 3.6 km/hr SSE 0 mm/hr 928 - March 23, 2019, 7:00 pm
5010 Ozamis, Misamis Occidental 22°C 68% 7.2 km/hr N 0 mm/hr 962.6 - March 23, 2019, 8:00 pm
5011 Tolosa -°C 53% 14.4 km/hr ENE 0 mm/hr 1013 0 March 23, 2019, 8:15 pm
5012 Laoag, Ilocos Norte AWS 28°C 55% 3.6 km/hr ENE 0 mm/hr 1011.5 - March 23, 2019, 8:10 pm
5013 San Enrique, Iloilo AWS -°C 1% 7.2 km/hr NNW 0 mm/hr 1008.6 0 March 23, 2019, 8:10 pm
5015 Guiuan, Eastern Samar AWS 27°C 74% 10.8 km/hr NE 0 mm/hr 1012.4 0 March 23, 2019, 8:15 pm
5016 Baler. Aurora AWS 27°C 80% 3.6 km/hr SE 0 mm/hr 1013.4 0 March 23, 2019, 8:10 pm
5017 Batac,Ilocos Norte AWS 26°C 75% 3.6 km/hr E 0 mm/hr 1011 0 March 23, 2019, 8:10 pm
5018 Sinait, Ilocos Sur AWS 26°C 78% 0 km/hr N 0 mm/hr - 0 March 23, 2019, 8:10 pm
5019 Bacnotan, La Union AWS 27°C 79% 3.6 km/hr N 0 mm/hr 1007.1 0 March 23, 2019, 8:10 pm
5020 La Trinidad, Benguet AWS 19°C 81% 7.2 km/hr SSE 0 mm/hr 871.8 0 March 23, 2019, 8:10 pm
5021 Atok, Benguet AWS 12°C 90% 7.2 km/hr ESE 0 mm/hr 768.7 0 March 23, 2019, 8:10 pm
5022 Agno Pangasinan AWS 25°C 90% 0 km/hr N 0 mm/hr 1002.2 0 March 23, 2019, 2:00 am
5023 San Marcelino, Zambales AWS 26°C 87% 3.6 km/hr SSE 0 mm/hr 1005.7 0 March 23, 2019, 8:20 pm
5024 Lal-lo, Cagayan AWS -°C 1% 7.2 km/hr ENE 0 mm/hr 1007.2 0 March 23, 2019, 8:10 pm
5025 Tuguegarao, Cagayan AWS 25°C 73% 7.2 km/hr NNW 0 mm/hr 1008.2 0 March 23, 2019, 8:10 pm
5026 Echague, Isabela AWS 27°C 72% 10.8 km/hr ESE 0 mm/hr 1006.3 0 March 23, 2019, 8:10 pm
5027 Bayombong,Nueva Vizcaya AWS 27°C 60% 3.6 km/hr NNE 0 mm/hr 982.2 0 March 23, 2019, 8:20 pm
5028 Munoz, Nueva Ecija AWS 25°C 76% 7.2 km/hr ENE 0 mm/hr 1004.2 0 March 23, 2019, 8:20 pm
5029 San Ildefonso, Bulacan AWS 27°C 61% 3.6 km/hr ESE 0 mm/hr 770.4 0 March 23, 2019, 8:20 pm
5032 Camiling, Tarlac AWS 29°C 58% 3.6 km/hr SE 0 mm/hr 1010.5 0 March 23, 2019, 8:10 pm
5033 Tanay, Rizal AWS 22°C 79% 21.6 km/hr NE 0 mm/hr 942.5 0 March 23, 2019, 8:10 pm
5034 UP Los Banos, Laguna AWS 26°C 74% 3.6 km/hr ESE 0 mm/hr 1012 0 March 23, 2019, 8:10 pm
5035 Indang, Cavite AWS 25°C 76% 14.4 km/hr ESE 0 mm/hr 979.7 0 March 23, 2019, 8:10 pm
5036 Alabat, Quezon AWS 26°C 32% 0 km/hr N 0 mm/hr 1012.7 0 March 23, 2019, 8:10 pm
5038 Guinobatan, Albay AWS 23°C 88% 3.6 km/hr W 0 mm/hr 972.7 0 March 23, 2019, 8:10 pm
5039 Virac, Catanduanes AWS 1°C 54% 0 km/hr N 0 mm/hr 1009.3 0 March 23, 2019, 2:20 pm
5040 Tabaco,Albay AWS 27°C 73% 7.2 km/hr E 0 mm/hr 1014.5 0 March 23, 2019, 8:10 pm
5042 Gamay, Northern Samar AWS 27°C 73% 7.2 km/hr ENE 0 mm/hr 534.1 0 March 23, 2019, 8:10 pm
5043 Baybay, Leyte AWS 27°C 61% 7.2 km/hr WSW 0 mm/hr 1011.8 0 March 23, 2019, 8:10 pm
5045 La Granja AWS 27°C 68% 7.2 km/hr S 0 mm/hr - 0 March 23, 2019, 8:10 pm
5046 Dumangas, Iloilo AWS 27°C 69% 10.8 km/hr NNE 0 mm/hr 1012.2 0 March 23, 2019, 8:10 pm
5047 Mambusao, Capiz AWS 31°C 52% 10.8 km/hr NE 0 mm/hr 1010.8 804.4 March 16, 2019, 12:10 pm
5051 Gen. Luna, Siargao AWS 27°C 78% 7.2 km/hr ENE 0 mm/hr 1013.3 0 March 23, 2019, 8:20 pm
5052 Mambajao, Camiguin AWS -°C 1% 10.8 km/hr ENE 0 mm/hr 1011.5 0 March 23, 2019, 8:10 pm
5054 Nasipit, Agusan del Norte AWS 26°C 78% 3.6 km/hr WSW 0 mm/hr 1008.1 0 March 23, 2019, 8:20 pm
5055 Tandag, Surigao del Sur AWS 27°C 80% 3.6 km/hr NE 0 mm/hr 1011.7 0 March 23, 2019, 8:20 pm
5063 Digos, Davao del Sur AWS 27°C 83% 3.6 km/hr ENE 0 mm/hr 1009.2 0 March 23, 2019, 8:10 pm
5068 RTR Philrice, Agusan del Norte AWS 24°C 94% 3.6 km/hr NNE 0 mm/hr - 0 March 23, 2019, 8:20 pm
5072 Naval, Biliran AWS 27°C 67% 7.2 km/hr E 0 mm/hr 1005.31 0 March 23, 2019, 7:00 pm
5073 Dinagat Islands AWS -°C -% 10.8 km/hr NNE 0 mm/hr 988.81 0 March 7, 2019, 11:30 pm
5074 Las Nieves Agusan del Norte AWS 25°C 87% 3.6 km/hr ENE 0 mm/hr 1006.62 0 March 23, 2019, 8:00 pm
5075 Culasi, Antique AWS 28°C 64% 21.6 km/hr ENE 0 mm/hr 1010.53 0 March 23, 2019, 8:00 pm
5078 Bayawan, Negros Oriental AWS 26°C 74% 7.2 km/hr NNE 0 mm/hr 1005.29 0 March 23, 2019, 8:00 pm
5079 San Jacinto, Ticao Island, Masbate AWS 26°C 79% 14.4 km/hr E 0 mm/hr 1009.18 0 March 23, 2019, 8:10 pm
5080 Kalibo, Aklan AWS 27°C 75% 18 km/hr ENE 0 mm/hr 1011.43 0 March 23, 2019, 8:10 pm
5081 Hinunangan, Southern Leyte AWS 27°C 82% 10.8 km/hr NNE 0 mm/hr 1012.17 0 March 23, 2019, 8:10 pm
5082 Talakag, Bukidnon AWS 23°C 81% 7.2 km/hr S 0 mm/hr 967.41 0 March 23, 2019, 8:20 pm
5100 Basco, Batanes AWS 22°C 84% 14.4 km/hr NE 0 mm/hr 997.2 1 March 23, 2019, 8:10 pm
5101 Itbayat, Batanes AWS 22°C 83% 18 km/hr NE 0 mm/hr 1004.7 0 March 23, 2019, 8:10 pm
5102 Rizal, Palawan AWS 26°C 82% 3.6 km/hr NE 0 mm/hr 1001.4 0 March 23, 2019, 8:10 pm
5103 Brooke's Point Palawan AWS 26°C 78% 3.6 km/hr N 0 mm/hr 1110.5 0 March 23, 2019, 8:10 pm
5104 Sta Ana, Cagayan AWS 25°C 74% 10.8 km/hr NE 0 mm/hr 1010.6 0 March 23, 2019, 8:10 pm
5105 Aparri, Cagayan AWS 26°C 74% 32.4 km/hr NE 0 mm/hr 1013.8 0 March 23, 2019, 8:10 pm
5106 Palanan, Isabela AWS 25°C 79% 0 km/hr ENE 0 mm/hr 1013.4 0 March 23, 2019, 8:10 pm
5107 Baler Synoptic Station AWS 25°C 79% 7.2 km/hr SE 0 mm/hr 993.5 0 March 23, 2019, 8:10 pm
5108 Janiuay Iloilo AWS 26°C 76% 10.8 km/hr N 0 mm/hr 1005.4 0 March 23, 2019, 8:10 pm
5109 Banaue, Ifugao AWS 24°C 52% 7.2 km/hr SE 0 mm/hr 854.5 0 March 23, 2019, 8:10 pm
5110 Dagupan Pangasinan AWS -°C 0% 14.4 km/hr NW 0 mm/hr 1011.6 0 March 23, 2019, 8:10 pm
5111 Hacienda Luisita, Tarlac AWS 28°C 62% 3.6 km/hr W 0 mm/hr 1008.3 0 March 23, 2019, 8:10 pm
5112 Tagaytay AWS 22°C 76% 18 km/hr E 0 mm/hr 916.6 0 March 23, 2019, 8:00 pm
5113 Ambulong Tanauan Batangas AWS 27°C 62% 7.2 km/hr E 0 mm/hr 1010.9 0 March 23, 2019, 8:10 pm
5114 Tayabas, Quezon AWS 25°C 74% 7.2 km/hr NNE 0 mm/hr 995.6 0 March 23, 2019, 8:10 pm
5115 Infanta, Quezon AWS 26°C 72% 0 km/hr E 0 mm/hr 1013.5 0 March 23, 2019, 8:10 pm
5116 Taal, Batangas AWS 27°C 56% 7.2 km/hr E 0 mm/hr 1004.3 0 March 23, 2019, 8:10 pm
5117 Lipa, Batangas AWS 23°C 71% 0 km/hr NE 0 mm/hr 975.9 0 March 23, 2019, 8:10 pm
5118 Mabini, Batangas AWS 27°C 60% 10.8 km/hr SE 0 mm/hr 1006.5 0 March 23, 2019, 8:10 pm
5119 Sofronio Espanola, Palawan AWS 26°C 79% 0 km/hr N 0 mm/hr 1005.9 0 March 23, 2019, 8:10 pm
5120 Puerto Galera, Mindoro Oriental AWS 28°C 59% 10.8 km/hr E 0 mm/hr 1012.2 0 March 23, 2019, 8:10 pm
5121 Sta Cruz, Mindoro Occidental AWS 26°C 81% 0 km/hr NNW 0 mm/hr 1010 0 March 23, 2019, 8:10 pm
5122 Calapan, Mindoro Oriental AWS 26°C 73% 7.2 km/hr SE 0 mm/hr 1008.3 0 March 23, 2019, 8:10 pm
5123 Coron, Palawan AWS 27°C 72% 3.6 km/hr SSE 0 mm/hr 1004.1 0 March 23, 2019, 8:00 pm
5124 Puerto Princesa, Palawan AWS 27°C 78% 0 km/hr SE 0 mm/hr 1008.6 0 March 23, 2019, 8:10 pm
5125 Cuyo, Palawan AWS 28°C 72% 7.2 km/hr NE 0 mm/hr 1010.6 0 March 23, 2019, 8:10 pm
5126 Sorsogon Synoptic 22°C 91% 3.6 km/hr ENE 0 mm/hr 1011.4 0 March 23, 2019, 8:00 pm
5127 Virac Radar 23°C 83% 3.6 km/hr ENE 0 mm/hr 988 0 March 23, 2019, 8:10 pm
5128 Legazpi AWS 25°C 75% 7.2 km/hr NE 0 mm/hr 1011.3 0 March 23, 2019, 8:10 pm
5129 Milagros, Masbate AWS 24°C 75% 7.2 km/hr ENE 0 mm/hr 1007.8 0 March 23, 2019, 8:10 pm
5130 Catarman Northern Samar AWS 26°C 71% 7.2 km/hr E 0 mm/hr 1012.5 0 March 23, 2019, 8:00 pm
5131 Tacloban, Leyte AWS 26°C 68% 7.2 km/hr NE 0 mm/hr 1012.7 0 March 23, 2019, 8:10 pm
5132 Maasin, Southern Leyte AWS 25°C 69% 7.2 km/hr W 0 mm/hr 1003.7 0 March 23, 2019, 8:10 pm
5133 Dauis, Bohol AWS 25°C 78% 3.6 km/hr NNW 0 mm/hr 1008.8 0 March 23, 2019, 8:10 pm
5134 Talibon, Bohol AWS 28°C 68% 10.8 km/hr ESE 0 mm/hr 1011.5 0 March 23, 2019, 8:10 pm
5135 Dalaguete, Cebu AWS 21°C 88% 7.2 km/hr ENE 0 mm/hr 925.6 0 March 23, 2019, 8:10 pm
5136 Iloilo Radar Station AWS 27°C 67% 7.2 km/hr NNW 0 mm/hr 1011 0 March 23, 2019, 8:10 pm
5137 Polilio Quezon 24°C 91% 3.6 km/hr N 0 mm/hr 1013 0 March 23, 2019, 8:10 pm
5138 Mactan, Cebu AWS 28°C 61% 10.8 km/hr NE 0 mm/hr 1009.3 0 March 23, 2019, 8:10 pm
5139 Argao, Cebu AWS 26°C 72% 3.6 km/hr NNE 0 mm/hr 993.5 0 March 23, 2019, 8:10 pm
5140 Surigao Synoptic Station AWS 26°C 78% 14.4 km/hr E 0 mm/hr 1008.3 0 March 23, 2019, 8:10 pm
5141 Butuan, Agusan del Norte AWS 25°C 81% 3.6 km/hr SE 0 mm/hr 1010.3 0 March 23, 2019, 8:10 pm
5142 Hinatuan, Surigao del Sur 23°C 89% 3.6 km/hr NW 0 mm/hr 1010.6 0.1 March 23, 2019, 8:10 pm
5143 Sindangan Zamboanga del Norte 26°C 55% 0 km/hr N 0 mm/hr 1009.8 0 March 23, 2019, 8:10 pm
5144 Malaybalay Bukidnon AWS 23°C 69% 3.6 km/hr ENE 0 mm/hr 926.8 0 March 23, 2019, 8:10 pm
5145 Maasim, Sarangani AWS 27°C 82% 10.8 km/hr W 0 mm/hr 1011 0 March 23, 2019, 8:10 pm
5146 Marawi, Lanao del Norte AWS 20°C 81% 7.2 km/hr WNW 0 mm/hr 927.3 0 March 23, 2019, 8:10 pm
5147 Davao City AWS 27°C 78% 3.6 km/hr W 0 mm/hr 1009.3 0 March 23, 2019, 8:10 pm
5148 Bago Oshiro, Talomo, Davao City AWS 25°C 83% 0 km/hr NW 0 mm/hr 1000.2 0 March 23, 2019, 8:10 pm
5149 Gen. Santos City AWS 27°C 75% 10.8 km/hr SSE 0 mm/hr 996.4 0 March 23, 2019, 8:10 pm
5150 Kiamba, Sarangani AWS 26°C 82% 3.6 km/hr N 0 mm/hr 1011 0 March 23, 2019, 8:10 pm
5151 Zamboanga City AWS 27°C 68% 7.2 km/hr WNW 0 mm/hr 1010.1 0 March 23, 2019, 8:10 pm
5152 Narra, Palawan AWS 25°C 80% 3.6 km/hr N 0 mm/hr 1010.8 0 March 23, 2019, 8:10 pm
5154 Jomalig, Quezon AWS 26°C 77% 0 km/hr E 0 mm/hr 1012.5 0 March 23, 2019, 8:10 pm